Tracking 31027 objects as of 19-Jul-2025
HD Live streaming from Space Station
objects crossing your sky now

STARLINK-4760

Track STARLINK-4760 now!
10-day predictions
STARLINK-4760 is classified as:


NORAD ID: 53828
Int'l Code: 2022-114L
Perigee: 546.4 km
Apogee: 547.3 km
Inclination: 53.2 °
Period: 95.4 minutes
Semi major axis: 6917 km
RCS: Unknown
Launch date: September 19, 2022
Source: United States (US)
Launch site: AIR FORCE EASTERN TEST RANGE (AFETR)
Your satellite tracking list
ABS 3
Track 1 satellite(s)




NASA's NSSDC Master Catalog

Two Line Element Set (TLE):
1 53828U 22114L   25199.60340098  .00000986  00000-0  80035-4 0  9995
2 53828  53.2176 274.8831 0000664  87.2465 272.8603 15.08842538157491
Source of the keplerian elements: AFSPC